Jackson, MN

10:28 PM CST on November 16, 2019 (GMT -0600)
Jackson Municipal

Weather History for KMJQ - August, 2019

Change the Weather History Date:

Tuesday, August 27, 2019

  Actual Average Record
Temperature  
Mean Temperature 62 °F -  
Max Temperature 69 °F 76 °F 93 °F (1999)
Min Temperature 55 °F 56 °F 51 °F (1996)
Degree Days  
Heating Degree Days 3    
Growing Degree Days 12 (Base 50)    
Moisture  
Dew Point 49 °F    
Average Humidity 67    
Maximum Humidity 88    
Minimum Humidity 35    
Precipitation  
Precipitation 0.00 in - - ()
Sea Level Pressure  
Sea Level Pressure 29.89 in    
Wind  
Wind Speed 11 mph (West)    
Max Wind Speed 26 mph    
Max Gust Speed 36 mph    
Visibility 10 miles    
Events Thunderstorm    
Averages and records for this station are not official NWS values.
T = Trace of Precipitation, MM = Missing Value Source: NWS Daily Summary

Daily Weather History Graph

Daily Weather History Graph

Search for Another Location

Airport or City:

Astronomy

Aug. 27, 2019 Rise Set
Actual Time 6:37 AM CDT 8:04 PM CDT
Civil Twilight 6:07 AM CDT 8:34 PM CDT
Nautical Twilight 5:31 AM CDT 9:10 PM CDT
Astronomical Twilight 4:53 AM CDT 9:48 PM CDT
Moon 2:56 AM CDT (8/27) 6:32 PM CDT (8/27)
Length of Visible Light 14h 26m
Length of Day
13h 26m
Waning Crescent, 11% of the Moon is Illuminated
Aug 27
Waning Crescent
Aug 30
New
Sep 5
First Quarter
Sep 13
Full
Sep 21
Last Quarter

Hourly Weather History & Observations

Time (CDT) Temp. Dew Point Humidity Pressure Visibility Wind Dir Wind Speed Gust Speed Precip Events Conditions
12:15 AM 60.8 °F 55.4 °F 82% 29.84 in 10.0 mi West 5.8 mph - N/A   Mostly Cloudy
12:35 AM 59.0 °F 53.6 °F 82% 29.83 in 10.0 mi West 5.8 mph - N/A   Scattered Clouds
12:56 AM 59.0 °F 53.6 °F 82% 29.83 in 10.0 mi West 8.1 mph - N/A   Clear
1:15 AM 59.0 °F 53.6 °F 82% 29.84 in 10.0 mi West 8.1 mph - N/A   Clear
1:35 AM 59.0 °F 51.8 °F 77% 29.84 in 10.0 mi West 9.2 mph - N/A   Clear
1:55 AM 57.2 °F 51.8 °F 82% 29.84 in 10.0 mi West 9.2 mph - N/A   Clear
2:15 AM 59.0 °F 51.8 °F 77% 29.85 in 10.0 mi West 12.7 mph - N/A   Clear
2:35 AM 57.2 °F 51.8 °F 82% 29.84 in 10.0 mi West 9.2 mph - N/A   Clear
2:55 AM 57.2 °F 51.8 °F 82% 29.84 in 10.0 mi West 10.4 mph - N/A   Clear
3:35 AM 59.0 °F 51.8 °F 77% 29.84 in 10.0 mi West 9.2 mph 16.1 mph N/A   Clear
3:55 AM 57.2 °F 51.8 °F 82% 29.84 in 10.0 mi West 8.1 mph - N/A   Clear
4:15 AM 55.4 °F 51.8 °F 88% 29.84 in 10.0 mi West 8.1 mph - N/A   Clear
4:35 AM 55.4 °F 51.8 °F 88% 29.85 in 10.0 mi West 9.2 mph - N/A   Clear
4:55 AM 55.4 °F 51.8 °F 88% 29.85 in 10.0 mi West 10.4 mph - N/A   Clear
5:15 AM 55.4 °F 51.8 °F 88% 29.85 in 10.0 mi West 9.2 mph - N/A   Clear
5:35 AM 55.4 °F 51.8 °F 88% 29.85 in 10.0 mi West 9.2 mph - N/A   Clear
5:55 AM 55.4 °F 51.8 °F 88% 29.85 in 10.0 mi West 10.4 mph - N/A   Clear
5:56 AM 55.4 °F 51.8 °F 88% 29.85 in 10.0 mi West 10.4 mph - N/A   Clear
6:15 AM 55.4 °F 51.8 °F 88% 29.86 in 10.0 mi West 9.2 mph - N/A   Clear
6:35 AM 55.4 °F 51.8 °F 88% 29.86 in 10.0 mi West 10.4 mph - N/A   Clear
6:55 AM 55.4 °F 51.8 °F 88% 29.86 in 10.0 mi West 8.1 mph - N/A   Clear
6:56 AM 55.4 °F 51.8 °F 88% 29.86 in 10.0 mi West 9.2 mph - N/A   Clear
7:15 AM 55.4 °F 51.8 °F 88% 29.87 in 10.0 mi West 8.1 mph - N/A   Clear
7:35 AM 55.4 °F 51.8 °F 88% 29.88 in 10.0 mi West 9.2 mph - N/A   Clear
7:55 AM 57.2 °F 51.8 °F 82% 29.88 in 10.0 mi West 10.4 mph - N/A   Clear
7:56 AM 57.2 °F 51.8 °F 82% 29.88 in 10.0 mi West 10.4 mph - N/A   Clear
8:15 AM 59.0 °F 51.8 °F 77% 29.88 in 10.0 mi West 10.4 mph - N/A   Clear
8:35 AM 59.0 °F 51.8 °F 77% 29.88 in 10.0 mi West 12.7 mph - N/A   Clear
8:55 AM 60.8 °F 51.8 °F 72% 29.89 in 10.0 mi West 15.0 mph 20.7 mph N/A   Clear
9:15 AM 60.8 °F 53.6 °F 77% 29.89 in 10.0 mi West 10.4 mph 17.3 mph N/A   Clear
9:35 AM 62.6 °F 53.6 °F 72% 29.89 in 10.0 mi West 11.5 mph 17.3 mph N/A   Clear
9:55 AM 64.4 °F 53.6 °F 68% 29.90 in 10.0 mi West 11.5 mph 17.3 mph N/A   Clear
10:15 AM 64.4 °F 53.6 °F 68% 29.91 in 10.0 mi West 12.7 mph 17.3 mph N/A   Clear
10:35 AM 66.2 °F 51.8 °F 60% 29.91 in 10.0 mi WSW 12.7 mph - N/A   Clear
10:55 AM 68.0 °F 51.8 °F 56% 29.91 in 10.0 mi West 16.1 mph 23.0 mph N/A   Clear
11:15 AM 66.2 °F 51.8 °F 60% 29.91 in 10.0 mi West 15.0 mph 24.2 mph N/A   Clear
11:35 AM 68.0 °F 51.8 °F 56% 29.91 in 10.0 mi West 17.3 mph 25.3 mph N/A   Clear
11:55 AM 68.0 °F 51.8 °F 56% 29.91 in 10.0 mi West 20.7 mph 25.3 mph N/A   Clear
12:15 PM 68.0 °F 51.8 °F 56% 29.91 in 10.0 mi West 18.4 mph 21.9 mph N/A   Scattered Clouds
12:35 PM 69.8 °F 50.0 °F 49% 29.91 in 10.0 mi West 18.4 mph 29.9 mph N/A   Scattered Clouds
12:55 PM 69.8 °F 48.2 °F 46% 29.91 in 10.0 mi West 18.4 mph 31.1 mph N/A   Scattered Clouds
1:15 PM 68.0 °F 46.4 °F 46% 29.91 in 10.0 mi West 16.1 mph 28.8 mph N/A   Scattered Clouds
1:35 PM 69.8 °F 50.0 °F 49% 29.90 in 10.0 mi West 15.0 mph 21.9 mph N/A   Scattered Clouds
1:55 PM 68.0 °F 46.4 °F 46% 29.90 in 10.0 mi WNW 18.4 mph 31.1 mph N/A   Mostly Cloudy
2:15 PM 69.8 °F 44.6 °F 40% 29.91 in 10.0 mi West 21.9 mph 31.1 mph N/A   Scattered Clouds
2:35 PM 69.8 °F 42.8 °F 38% 29.90 in 10.0 mi West 21.9 mph 31.1 mph N/A Thunderstorm Scattered Clouds
2:55 PM 69.8 °F 44.6 °F 40% 29.90 in 10.0 mi West 20.7 mph 34.5 mph N/A   Scattered Clouds
3:15 PM 69.8 °F 44.6 °F 40% 29.89 in 10.0 mi West 25.3 mph 34.5 mph N/A   Scattered Clouds
3:35 PM 69.8 °F 41.0 °F 35% 29.89 in 10.0 mi West 26.5 mph 35.7 mph N/A   Scattered Clouds
3:55 PM 69.8 °F 44.6 °F 40% 29.90 in 10.0 mi West 23.0 mph 33.4 mph N/A   Clear
4:35 PM 69.8 °F 42.8 °F 38% 29.90 in 10.0 mi West 24.2 mph 33.4 mph N/A   Scattered Clouds
4:55 PM 68.0 °F 42.8 °F 40% 29.91 in 10.0 mi West 23.0 mph 33.4 mph N/A   Scattered Clouds
5:15 PM 68.0 °F 44.6 °F 43% 29.91 in 10.0 mi West 23.0 mph 32.2 mph N/A   Mostly Cloudy
5:35 PM 68.0 °F 44.6 °F 43% 29.91 in 10.0 mi West 19.6 mph 33.4 mph N/A   Mostly Cloudy
5:55 PM 68.0 °F 44.6 °F 43% 29.91 in 10.0 mi West 24.2 mph 33.4 mph N/A   Scattered Clouds
6:15 PM 66.2 °F 44.6 °F 46% 29.92 in 10.0 mi West 23.0 mph 28.8 mph N/A   Mostly Cloudy
6:35 PM 66.2 °F 44.6 °F 46% 29.92 in 10.0 mi West 19.6 mph 29.9 mph N/A   Overcast
7:17 PM 64.4 °F 44.6 °F 49% 29.92 in 10.0 mi West 18.4 mph 26.5 mph N/A   Overcast
7:35 PM 62.6 °F 46.4 °F 55% 29.93 in 10.0 mi West 13.8 mph 21.9 mph N/A   Mostly Cloudy
7:55 PM 62.6 °F 46.4 °F 55% 29.93 in 10.0 mi West 11.5 mph 19.6 mph N/A   Overcast
8:15 PM 62.6 °F 46.4 °F 55% 29.93 in 10.0 mi West 11.5 mph - N/A   Scattered Clouds
8:35 PM 60.8 °F 46.4 °F 59% 29.94 in 10.0 mi West 12.7 mph - N/A   Clear
8:55 PM 60.8 °F 46.4 °F 59% 29.94 in 10.0 mi West 9.2 mph - N/A   Clear
8:56 PM 60.8 °F 46.4 °F 59% 29.94 in 10.0 mi West 9.2 mph - N/A   Clear
9:15 PM 59.0 °F 48.2 °F 67% 29.95 in 10.0 mi West 9.2 mph - N/A   Clear
9:35 PM 59.0 °F 48.2 °F 67% 29.95 in 10.0 mi West 9.2 mph - N/A   Clear
10:15 PM 55.4 °F 48.2 °F 77% 29.95 in 10.0 mi West 8.1 mph - N/A   Clear
10:35 PM 55.4 °F 48.2 °F 77% 29.95 in 10.0 mi West 6.9 mph - N/A   Clear
10:55 PM 55.4 °F 48.2 °F 77% 29.95 in 10.0 mi West 8.1 mph - N/A   Clear
10:56 PM 55.4 °F 48.2 °F 77% 29.95 in 10.0 mi West 8.1 mph - N/A   Clear
11:15 PM 55.4 °F 48.2 °F 77% 29.94 in 10.0 mi WSW 6.9 mph - N/A   Clear
11:35 PM 55.4 °F 48.2 °F 77% 29.94 in 10.0 mi West 9.2 mph - N/A   Clear
11:55 PM 55.4 °F 48.2 °F 77% 29.94 in 10.0 mi West 8.1 mph - N/A   Clear
11:56 PM 55.4 °F 48.2 °F 77% 29.94 in 10.0 mi West 8.1 mph - N/A   Clear